Location: Les Coudrans
(46.1056°N, 1.1158°W)
Time: 07:17:48
(UTC+00:00)

Cosmos 2242 Rocket - Pass Details

Date: 03 March 2021
Orbit: 617 x 652 km, 82.5° (Epoch: 19 April)

Event Time Altitude Azimuth Distance (km) Brightness Sun altitude
Rises 19:05:22 0° 354° (N) 2,961 7.2 -13.2°
Reaches altitude 10° 19:07:40 10° 358° (N) 2,041 6.3 -13.6°
Maximum altitude 19:12:09 59° 78° (ENE) 740 3.6 -14.4°
Drops below altitude 10° 19:16:32 10° 158° (SSE) 2,003 5.9 -15.1°
Sets 19:18:46 0° 163° (SSE) 2,900 6.8 -15.5°
